Вернуться в каталог

STARLINK-1202

АктивенСвязьVLEO
NORAD 45183·PAYLOAD·🇺🇸 United States

Запущен Feb 17, 2020 с Cape Canaveral Space Force Station

Loading…

Ближайшие Пролёты (ближайшие 24 часа)

TLE

СвежийSource: CelesTrak SupGP

Эпоха: Sep 15, 2026, 01:33 UTC

1 45183C 20012F   26258.06506944  .00002729  00000+0  61151-4 0  2588
2 45183  53.1517 232.6136 0002328  87.2371 349.1900 15.42847860    13

Отслеживайте STARLINK-1202 в реальном времени с AllMySat

Download on the App Store